www.pogodaiklimat.ru

Погода и климат >> Архив погоды >> Россия >> Нижегородская область >> Нижний Новгород


АРХИВ ПОГОДЫ в Нижнем Новгороде

Время (UTC), дата Ветер
(напр.,м/с)
 
Видим.   Явления Облачность Т
(С)
Тd
(С)
f
(%)
Тe
(С)
Тes
(С)
Комфортность P
(гПа)
Po
(гПа)
Тmin
(С)
Tmax
(С)
R
(мм)
R24
(мм)
S
(см)
06 14.02 ЮВ 1-2
{2}
4000 м дымка {снег} ясно -13.2 -14.6 89 -16 -15 по сезону 1033.9 1012.7
09 14.02 ЮВ 1-2
{3}
10 км ясно -6.7 -11.3 70 -9 -5 по сезону 1034.5 1013.9
12 14.02 В 1-2
{3}
10 км ясно -7.2 -11.5 71 -9 -8 по сезону 1034.6 1013.9
15 14.02 В 1-2
{3}
10 км ясно -8.3 -12.5 72 -11 -11 по сезону 1035.5 1014.7 -6.2 0.0
18 14.02 В 2-3
{4}
10 км ясно -10.0 -13.6 75 -14 -14 по сезону 1035.9 1015.0
21 14.02 В 1-2
{3}
10 км ясно -11.6 -14.4 80 -14 -14 по сезону 1036.5 1015.5
00 15.02 штиль 0
{2}
10 км ясно -14.5 -16.5 85 -15 -15 по сезону 1037.7 1016.4
03 15.02 штиль 0
{1}
10 км ясно -15.4 -17.3 85 -15 -15 по сезону 1038.2 1016.8 -15.8 41
06 15.02 штиль 0
{1}
10 км 1/0
[Ci fib]
-16.2 -18.1 85 -16 -15 по сезону 1039.0 1017.5 -16.4
09 15.02 ЮВ 1-3
{3}
10 км 1/0
[Ci fib]
-8.1 -12.7 69 -10 -7 по сезону 1039.3 1018.4
12 15.02 В 1-3
{4}
10 км ясно -7.4 -13.3 63 -9 -8 по сезону 1039.3 1018.5
15 15.02 ЮВ 2-4
{5}
10 км ясно -9.6 -13.7 72 -14 -14 по сезону 1039.4 1018.4 -6.7
18 15.02 ЮВ 1-4
{5}
10 км ясно -11.7 -14.4 80 -14 -14 по сезону 1039.5 1018.3
21 15.02 Ю 1-2
{4}
10 км ясно -12.9 -15.6 80 -15 -15 по сезону 1039.7 1018.5
00 16.02 штиль 0
{2}
10 км ясно -14.3 -16.3 85 -14 -14 по сезону 1039.7 1018.3
03 16.02 ЮВ 1-2
{3}
10 км 10/6 1000 м
[Sc Ac As]
-12.0 -14.0 85 -14 -14 по сезону 1039.0 1017.8 -14.6 41
06 16.02 ЮВ 2-4
{4}
10 км 9/6 1000 м
[Sc Ac trans]
-10.8 -12.8 85 -15 -15 по сезону 1038.6 1017.6
09 16.02 ЮВ 2-3
{4}
10 км слабый снег 10/8 300 м
[Sc As op]
-7.4 -11.3 74 -12 -12 по сезону 1038.1 1017.3
12 16.02 ЮВ 2-4
{5}
4000 м слабый снег 10/10 300 м
[Frnb]
-5.8 -8.8 79 -10 -10 по сезону 1037.0 1016.4
15 16.02 ЮВ 2-4
{5}
10 км слабый снег 10/6 300 м
[Sc As op]
-5.2 -8.9 75 -9 -9 по сезону 1036.4 1015.9 -5.0 0.2
18 16.02 Ю 1-3
{5}
10 км слабый снег 10/10 300 м
[Sc]
-4.7 -8.7 74 -7 -7 по сезону 1035.9 1015.4
21 16.02 Ю 1-2
{4}
10 км {снег} 10/10 300 м
[Sc]
-4.8 -8.8 74 -7 -7 по сезону 1035.3 1014.8
00 17.02 В 1-2
{5}
10 км {снег} 10/10 300 м
[Sc]
-5.7 -9.1 77 -8 -8 по сезону 1035.1 1014.5
03 17.02 ЮВ 1-3
{4}
10 км 10/10 300 м
[Sc]
-6.8 -10.6 74 -9 -9 по сезону 1034.1 1013.5 -6.8 0.0 41
06 17.02 ЮВ 2-5
{5}
10 км 8/0
[Ac trans]
-7.2 -11.1 74 -11 -11 по сезону 1033.4 1012.9 -7.6
09 17.02 ЮВ 3-6
{6}
10 км 8/0
[Ac trans Ci fib]
-5.0 -12.3 57 -10 -8 по сезону 1032.2 1011.8
12 17.02 ЮВ 3-6
{7}
10 км слабый снег 10/0
[As op]
-4.6 -10.7 62 -10 -9 по сезону 1031.2 1010.8
15 17.02 ЮВ 3-6
{9}
10 км слабый снег 10/8 300 м
[Sc Ac As]
-6.0 -8.7 81 -12 -12 по сезону 1030.5 1010.0 -4.6 0.0
18 17.02 ЮВ 3-7
{8}
4000 м слабый снег 10/9 300 м
[Sc]
-6.4 -8.3 86 -12 -12 по сезону 1029.6 1009.1
21 17.02 ЮВ 3-5
{7}
10 км слабый снег 10/10 300 м
[Sc]
-5.7 -9.1 77 -11 -11 по сезону 1028.7 1008.2
00 18.02 ЮВ 3-6
{8}
10 км {снег} 10/10 300 м
[Sc]
-5.6 -10.3 69 -11 -11 по сезону 1027.6 1007.2
03 18.02 ЮВ 2-6
{7}
10 км 9/9 600 м
[Sc]
-6.8 -12.0 66 -11 -11 по сезону 1026.6 1006.1 -6.8 0.0 41
06 18.02 ЮВ 3-5
{8}
10 км слабый снег 10/10 300 м
[Sc]
-7.2 -9.7 82 -13 -13 по сезону 1025.9 1005.4 -7.4
09 18.02 ЮВ 3-7
{8}
4000 м снег 10/10 300 м
[Sc]
-5.5 -8.9 77 -11 -11 по сезону 1024.9 1004.5
12 18.02 ЮВ 3-5
{8}
4000 м слабый снег 10/10 300 м
[Sc]
-4.8 -7.2 83 -10 -10 по сезону 1023.6 1003.3
15 18.02 ЮВ 3-6
{9}
10 км слабый снег 10/10 300 м
[Frnb]
-5.7 -7.5 87 -11 -11 по сезону 1022.5 1002.1 -4.6 1
18 18.02 ЮВ 3-7
{8}
4000 м слабый снег 10/10 300 м
[Frnb]
-6.8 -8.5 88 -13 -13 по сезону 1021.4 1001.1
21 18.02 ЮВ 3-4
{7}
4000 м слабый снег 10/10 300 м
[Frnb]
-7.2 -8.9 88 -13 -13 по сезону 1020.2 999.8
00 19.02 ЮВ 2-2
{4}
4000 м слабый снег 10/10 300 м
[Frnb]
-8.1 -9.5 90 -13 -13 по сезону 1019.4 998.9
03 19.02 Ю 1-2
{3}
4000 м слабый снег 10/10 300 м
[Frnb]
-8.4 -9.4 92 -11 -11 по сезону 1018.4 997.9 -8.4 3 43
06 19.02 Ю 1-2
{2}
10 км в посл. час снег 6/3 300 м
[St Ac trans]
-8.1 -9.1 92 -11 -10 по сезону 1018.1 997.6
09 19.02 Ю 1-3
{4}
10 км слабый снег 10/5 600 м
[Sc Ac As]
-6.8 -9.7 80 -9 -9 по сезону 1018.4 998.0
12 19.02 Ю 1-3
{4}
4000 м слабый снег 10/8 300 м
[Frnb Ac As]
-5.2 -8.9 75 -7 -7 по сезону 1017.7 997.5
15 19.02 ЮВ 2-3
{4}
4000 м слабый снег 10/8 300 м
[Frnb Ac As]
-5.8 -8.8 79 -10 -10 по сезону 1017.5 997.3 -4.0 0.3
18 19.02 Ю 1-2
{4}
10 км {снег} 10/10 600 м
[Sc]
-6.0 -8.3 84 -8 -8 по сезону 1017.0 996.8
21 19.02 штиль 0
{2}
10 км слабый снег 10/10 300 м
[Frnb]
-5.7 -7.5 87 -7 -7 по сезону 1016.0 995.8
00 20.02 штиль 0
{2}
10 км {снег} 10/10 600 м
[Sc]
-5.8 -7.3 89 -7 -7 тепло 1015.4 995.2
03 20.02 З 1-2
{2}
4000 м слабый снег 10/10 300 м
[Frnb]
-5.4 -6.4 93 -8 -8 по сезону 1014.6 994.4 -6.1 0.5 45
06 20.02 З 1-2
{3}
4000 м слабый снег 10/10 300 м
[Frnb]
-5.4 -6.4 93 -8 -8 по сезону 1014.4 994.2
09 20.02 СЗ 1-3
{4}
4000 м слабый снег 10/8 300 м
[Frnb Ac As]
-4.7 -7.5 81 -7 -7 по сезону 1014.5 994.4
12 20.02 З 1-4
{5}
4000 м слабый ливневой снег 9/8 300 м
[Cb cap Ac trans]
-4.8 -8.4 76 -7 -7 по сезону 1014.3 994.2
15 20.02 З 1-3
{6}
10 км {снег} 8/3 300 м
[Sc Ac trans Ci fib]
-7.4 -10.8 77 -10 -10 по сезону 1015.0 994.7 -4.4 0.4
18 20.02 З 1-4
{4}
4000 м слабый снег 10/8 300 м
[Frnb Ac As]
-7.5 -9.2 88 -10 -10 по сезону 1015.2 995.1
21 20.02 З 1-3
{5}
4000 м слабый снег 10/8 300 м
[Frnb As op]
-9.3 -10.9 88 -12 -12 по сезону 1015.6 995.1
00 21.02 З 1-4
{5}
4000 м слабый снег 10/10 300 м
[Frnb]
-10.2 -11.5 90 -13 -13 по сезону 1016.1 995.6

 

Местоположение метеостанции Нижний Новгород (Нижегородская область, Россия): широта 56.27 долгота 44.00 высота над уровнем моря 157 м.

В архиве по умолчанию представлена погода в Нижнем Новгороде за последнюю неделю. Архивные данные за месяц целиком и за предыдущие месяцы, начиная с января 2011 года, Вы можете получить, выбрав интересующий диапазон дат из раскрывающегося списка и нажав кнопку "Ввод!".

Внимание! Время в таблицах - всемирное. Для получения местного времени необходимо прибавить поправку, которая в Нижнем Новгороде равна 3 ч.

Смотрите также архив погоды в соседних городах и на ближайших метеорологических станциях:

Погода в Нижнем Новгороде аэропорт (Нижегородская область, Россия) (15 км)
Погода в Дальнем Константиново (Нижегородская область, Россия) (53 км)
Погода в Волжской ГМО (Нижегородская область, Россия) (57 км)
Погода в Семенове (Нижегородская область, Россия) (60 км)
Погода в Павлово (Нижегородская область, Россия) (70 км)
Погода в Лысково (Нижегородская область, Россия) (70 км)
Погода в Арзамасе (Нижегородская область, Россия) (101 км)
Погода в Воскресенском (Нижегородская область, Россия) (106 км)
Погода в Вязниках (Владимирская область, Россия) (113 км)
Погода в Красных Баках (Нижегородская область, Россия) (119 км)

Пояснения к столбцам:

Ветер - указаны скорость ветра в м/с - средняя за 10 мин, порывы в срок и между сроками (в фигурных скобках) и направление, откуда дует ветер: С - северный, СВ - северо-восточный, В - восточный, ЮВ - юго-восточный, Ю - южный, ЮЗ - юго-западный, З - западный, СЗ - северо-западный.
Видимость - горизонтальная дальность видимости в метрах или километрах. При видимости от 1 до 10 км при отсутствии осадков обычно наблюдается дымка, при ухудшении видимости до 1 км и менее - туман. В сухую погоду видимость может ухудшаться дымом, пылью или мглою.
Явления - указаны атмосферные явления, наблюдавшиеся в срок или в последний час перед сроком; фигурными скобками обозначены явления, наблюдавшиеся между сроками (за 1-3 часа до срока); квадратными скобками обозначены град или гололедные отложения с указанием их диаметра в мм.
Облачность - указаны через наклонную черту общая и нижняя облачность в баллах и высота нижней границы облаков в метрах; квадратными скобками обозначены формы облаков: Ci - перистые, Cs - перисто-слоистые, Cc - перисто-кучевые, Ac - высококучевые, As - высокослоистые, Sc - слоисто-кучевые, Ns - слоисто-дождевые, Cu - кучевые, Cb - кучево-дождевые. Подробнее классификацию облаков см. в Атласе облаков (PDF).
T - Температура воздуха - температура, измеренная на высоте 2 м над землей.
Td - Температура точки росы - температура, при понижении до которой содержащийся в воздухе водяной пар достигнет насыщения.
f - Относительная влажность воздуха - влажноcть воздуха, измеренная на высоте 2 м над землей.
Te - Эффективная температура - температура, которую ощущает одетый по сезону человек в тени. Характеристика душности погоды. При расчете учитывается влияние влажности воздуха и скорости ветра на теплоощущения человека.
Tes - Эффективная температура на солнце - температура, которую ощущает человек, с поправкой на солнечный нагрев. Характеристика знойности погоды. Зависит от высоты солнца над горизонтом, облачности и скорости ветра. Ночью, в пасмурную погоду, а также при ветре 12 м/с и более поправка равна нулю.
P - Атмосферное давление - приведенное к уровню моря атмосферное давление.
Po - Атмосферное давление - измеренное на уровне метеостанции атмосферное давление.
Tmin - Минимальная температура - минимум температуры воздуха на высоте 2 м над землей.
Tmax - Максимальная температура - максимум температуры воздуха на высоте 2 м над землей.
R - Количество осадков - Количество выпавших осадков за период времени, мм. При наведении курсора мыши на число - период времени, за который выпало указанное количество осадков.
R24 - Количество осадков - Количество выпавших осадков за 24 часа, мм.
S - Снежный покров - Высота снежного покрова, см. При наведении курсора мыши на число - состояние снежного покрова и степень покрытия местности в баллах.